LU1MQF-13 Weather Reports


time (UTC)temp
F
wind
direction
speed
knots
gust
knots
rain 1hr
in
rain 24hr
in
rain mn
in
humidity
%
barometer
mb
20260507152713 68 0 0.0 0.0 0.00 0.00 0.00 23 936.8
20260507151212 66 0 0.0 0.0 0.00 0.00 0.00 21 937.2
20260507145713 66 0 0.0 0.0 0.00 0.00 0.00 22 937.7
20260507144213 66 0 0.0 0.0 0.00 0.00 0.00 24 937.9
20260507142713 66 0 0.0 0.0 0.00 0.00 0.00 27 937.3
20260507141212 66 0 0.0 0.0 0.00 0.00 0.00 30 937.4
20260507135713 64 0 0.0 0.0 0.00 0.00 0.00 27 937.5
20260507134213 64 0 0.0 0.0 0.00 0.00 0.00 31 938.0
20260507132712 63 0 0.0 0.0 0.00 0.00 0.00 27 938.3
20260507131213 63 0 0.0 0.0 0.00 0.00 0.00 27 938.3
20260507125712 63 0 0.0 0.0 0.00 0.00 0.00 29 938.1
20260507124213 63 0 0.0 0.0 0.00 0.00 0.00 31 937.9
20260507122713 61 0 0.0 0.0 0.00 0.00 0.00 32 937.8
20260507121213 61 0 0.0 0.0 0.00 0.00 0.00 33 937.8
20260507115713 61 0 0.0 0.0 0.00 0.00 0.00 29 937.6
20260507114213 61 0 0.0 0.0 0.00 0.00 0.00 32 937.5
20260507112712 61 0 0.0 0.0 0.00 0.00 0.00 32 937.5
20260507111213 61 0 0.0 0.0 0.00 0.00 0.00 32 937.2
20260507105713 61 0 0.0 0.0 0.00 0.00 0.00 34 937.1
20260507104212 61 0 0.0 0.0 0.00 0.00 0.00 38 937.1
20260507102713 59 0 0.0 0.0 0.00 0.00 0.00 31 937.2
20260507101212 61 0 0.0 0.0 0.00 0.00 0.00 30 937.3
20260507095712 61 0 0.0 0.0 0.00 0.00 0.00 30 937.2
20260507094212 61 0 0.0 0.0 0.00 0.00 0.00 30 937.3
20260507092712 61 0 0.0 0.0 0.00 0.00 0.00 30 937.1
20260507091212 61 0 0.0 0.0 0.00 0.00 0.00 30 937.0
20260507085712 61 0 0.0 0.0 0.00 0.00 0.00 30 937.0
20260507084213 61 0 0.0 0.0 0.00 0.00 0.00 30 937.0
20260507082712 61 0 0.0 0.0 0.00 0.00 0.00 30 936.8
20260507081211 63 0 0.0 0.0 0.00 0.00 0.00 30 936.7
20260507075712 63 0 0.0 0.0 0.00 0.00 0.00 30 936.1
20260507074212 63 0 0.0 0.0 0.00 0.00 0.00 31 936.0
20260507072712 63 0 0.0 0.0 0.00 0.00 0.00 31 935.6
20260507071211 63 0 0.0 0.0 0.00 0.00 0.00 31 935.5
20260507065712 63 0 0.0 0.0 0.00 0.00 0.00 31 935.1
20260507064212 63 0 0.0 0.0 0.00 0.00 0.00 32 935.1
20260507062712 63 0 0.0 0.0 0.00 0.00 0.00 31 935.4
20260507061212 64 0 0.0 0.0 0.00 0.00 0.00 30 935.4
20260507055711 64 0 0.0 0.0 0.00 0.00 0.00 30 935.3
20260507054212 64 0 0.0 0.0 0.00 0.00 0.00 31 934.8
20260507052712 64 0 0.0 0.0 0.00 0.00 0.00 32 934.4
20260507051212 64 0 0.0 0.0 0.00 0.00 0.00 33 934.3
20260507045712 64 0 0.0 0.0 0.00 0.00 0.00 33 933.9
20260507044212 64 0 0.0 0.0 0.00 0.00 0.00 34 933.6
20260507042712 64 0 0.0 0.0 0.00 0.00 0.00 35 933.1
20260507041212 64 0 0.0 0.0 0.00 0.00 0.00 37 932.9
20260507035711 66 0 0.0 0.0 0.00 0.00 0.00 40 932.7
20260507034211 64 0 0.0 0.0 0.00 0.00 0.00 34 932.0
20260507032712 64 0 0.0 0.0 0.00 0.00 0.00 34 932.1
20260507031211 63 0 0.0 0.0 0.00 0.00 0.00 35 932.1
20260507025712 63 0 0.0 0.0 0.00 0.00 0.00 36 932.0
20260507024212 64 0 0.0 0.0 0.00 0.00 0.00 37 931.9
20260507022711 64 0 0.0 0.0 0.00 0.00 0.00 39 931.9
20260507021212 64 0 0.0 0.0 0.00 0.00 0.00 41 932.1
20260507015712 64 0 0.0 0.0 0.00 0.00 0.00 46 932.4
20260507014211 64 0 0.0 0.0 0.00 0.00 0.00 40 931.9
20260507012712 64 0 0.0 0.0 0.00 0.00 0.00 41 931.6
20260507011211 64 0 0.0 0.0 0.00 0.00 0.00 42 931.3
20260507005711 66 0 0.0 0.0 0.00 0.00 0.00 43 931.2
20260507004212 66 0 0.0 0.0 0.00 0.00 0.00 44 930.9
20260507002711 66 0 0.0 0.0 0.00 0.00 0.00 44 931.0
20260507001212 68 0 0.0 0.0 0.00 0.00 0.00 50 931.1
20260506235712 66 0 0.0 0.0 0.00 0.00 0.00 50 931.1
20260506234211 66 0 0.0 0.0 0.00 0.00 0.00 50 931.1
20260506232712 66 0 0.0 0.0 0.00 0.00 0.00 49 931.4
20260506231211 66 0 0.0 0.0 0.00 0.00 0.00 39 931.2
20260506225711 66 0 0.0 0.0 0.00 0.00 0.00 39 931.7
20260506224212 66 0 0.0 0.0 0.00 0.00 0.00 39 931.2
20260506222711 66 0 0.0 0.0 0.00 0.00 0.00 38 931.0
20260506221211 66 0 0.0 0.0 0.00 0.00 0.00 39 930.9
20260506215711 66 0 0.0 0.0 0.00 0.00 0.00 39 930.7
20260506214210 68 0 0.0 0.0 0.00 0.00 0.00 39 930.7
20260506212711 68 0 0.0 0.0 0.00 0.00 0.00 39 930.3
20260506211211 70 0 0.0 0.0 0.00 0.00 0.00 38 930.6
20260506205711 70 0 0.0 0.0 0.00 0.00 0.00 37 930.7
20260506204211 70 0 0.0 0.0 0.00 0.00 0.00 37 930.4
20260506202711 70 0 0.0 0.0 0.00 0.00 0.00 35 929.6
20260506201211 72 0 0.0 0.0 0.00 0.00 0.00 33 928.8
20260506195711 72 0 0.0 0.0 0.00 0.00 0.00 33 929.0
20260506194211 72 0 0.0 0.0 0.00 0.00 0.00 30 929.7
20260506192711 72 0 0.0 0.0 0.00 0.00 0.00 29 929.4
20260506191211 73 0 0.0 0.0 0.00 0.00 0.00 29 929.3
20260506185711 75 0 0.0 0.0 0.00 0.00 0.00 28 929.4
20260506184210 75 0 0.0 0.0 0.00 0.00 0.00 28 929.0
20260506182711 75 0 0.0 0.0 0.00 0.00 0.00 30 928.5
20260506181211 73 0 0.0 0.0 0.00 0.00 0.00 32 927.7
20260506175711 75 0 0.0 0.0 0.00 0.00 0.00 42 928.3
20260506174211 75 0 0.0 0.0 0.00 0.00 0.00 43 928.4
20260506172711 75 0 0.0 0.0 0.00 0.00 0.00 43 928.4
20260506171211 75 0 0.0 0.0 0.00 0.00 0.00 43 928.2
20260506165710 75 0 0.0 0.0 0.00 0.00 0.00 42 928.0
20260506164211 75 0 0.0 0.0 0.00 0.00 0.00 43 927.9
20260506162710 75 0 0.0 0.0 0.00 0.00 0.00 44 928.2
20260506161210 73 0 0.0 0.0 0.00 0.00 0.00 45 928.3
20260506155710 72 0 0.0 0.0 0.00 0.00 0.00 47 928.3
20260506154211 72 0 0.0 0.0 0.00 0.00 0.00 48 928.6